Weather reports worldwide

Advertisment
Marrakech, Morocco (60230): temperature & dewpoint: 16.04.2018 16:00:00 - 22.04.2018 16:00:00 (WEST)Marrakech, Morocco (60230): wind speed: 16.04.2018 16:00:00 - 22.04.2018 16:00:00 (WEST)Marrakech, Morocco (60230): wind direction: 16.04.2018 16:00:00 - 22.04.2018 16:00:00 (WEST)Marrakech, Morocco (60230): reduced air pressure: 16.04.2018 16:00:00 - 22.04.2018 16:00:00 (WEST)Marrakech, Morocco (60230): visibility: 16.04.2018 16:00:00 - 22.04.2018 16:00:00 (WEST)
Date & Time tt [°C] td [°C] ff [km/h] ff [kn] dd ppp [hPa] vv [km]
22.04.2018 16:00:00 23,1 2,0 5 3 ESE 1008,4 10
22.04.2018 15:00:00 22,0 2,0 8 4 - - 10
22.04.2018 14:00:00 21,0 4,0 8 4 - - 10
22.04.2018 13:00:00 20,3 4,8 8 4 - 1010,2 10
22.04.2018 12:00:00 19,0 6,0 5 3 NW - 10
22.04.2018 11:00:00 18,0 6,0 5 3 W - 10
22.04.2018 10:00:00 17,1 6,3 8 4 NW 1011,0 10
22.04.2018 09:00:00 17,0 6,0 4 2 - - 10
22.04.2018 08:00:00 15,0 5,0 8 4 E - 10
22.04.2018 07:00:00 14,0 4,9 11 6 E 1011,2 10
22.04.2018 06:00:00 14,0 5,0 5 3 E - 10
22.04.2018 05:00:00 14,0 4,0 0 0 N - 10
22.04.2018 04:00:00 13,9 4,8 4 2 W 1012,4 10
22.04.2018 03:00:00 - - - - - - -
22.04.2018 02:00:00 - - - - - - -
22.04.2018 01:00:00 15,3 4,4 11 6 NNW 1012,9 10
22.04.2018 00:00:00 16,0 5,0 13 7 NW - 10
21.04.2018 23:00:00 17,0 6,0 15 8 N - 10
21.04.2018 22:00:00 16,8 6,3 9 5 SW 1011,7 10
21.04.2018 21:00:00 18,0 5,0 11 6 SSE - 10
21.04.2018 20:00:00 19,0 5,0 13 7 SSE - 10
21.04.2018 19:00:00 20,8 4,4 9 5 ESE 1009,1 10
21.04.2018 18:00:00 21,0 3,0 8 4 NW - 10
21.04.2018 17:00:00 21,0 3,0 5 3 - - 10
21.04.2018 16:00:00 19,7 3,8 8 4 W 1009,7 10
21.04.2018 15:00:00 19,0 5,0 5 3 - - 10
21.04.2018 14:00:00 17,0 4,0 8 4 NW - 10
21.04.2018 13:00:00 15,9 5,5 5 3 NNE 1012,0 10
21.04.2018 12:00:00 15,0 6,0 8 4 N - 10
21.04.2018 11:00:00 14,0 6,0 11 6 WNW - 10
21.04.2018 10:00:00 13,5 5,9 9 5 WNW 1012,7 10
21.04.2018 09:00:00 12,0 8,0 5 3 W - 10
21.04.2018 08:00:00 12,0 9,0 5 3 WSW - 10
21.04.2018 07:00:00 12,1 8,9 9 5 SW 1012,1 10
21.04.2018 06:00:00 12,0 8,0 5 3 SW - 10
21.04.2018 05:00:00 11,0 9,0 5 3 SW - 8
21.04.2018 04:00:00 11,6 9,7 13 7 WSW 1012,6 8
21.04.2018 03:00:00 12,0 10,0 16 9 W - 5
21.04.2018 02:00:00 13,0 10,0 15 8 W - 5
21.04.2018 01:00:00 13,1 10,3 13 7 W 1012,3 7
21.04.2018 00:00:00 14,0 10,0 16 9 W - 10
20.04.2018 23:00:00 14,0 9,0 15 8 W - 10
20.04.2018 22:00:00 15,0 8,7 16 9 W 1012,3 10
20.04.2018 21:00:00 16,0 8,0 16 9 W - 10
20.04.2018 20:00:00 18,0 7,0 22 12 W - 10
20.04.2018 19:00:00 18,9 6,1 21 11 W 1009,8 10
20.04.2018 18:00:00 - - - - - - -
20.04.2018 17:00:00 21,0 5,0 11 6 - - 10
20.04.2018 16:00:00 20,4 6,0 8 4 W 1009,2 10
20.04.2018 15:00:00 20,0 7,0 2 1 - - 10
20.04.2018 14:00:00 19,0 7,0 8 4 W - 10
20.04.2018 13:00:00 17,7 7,4 9 5 W 1012,0 10
20.04.2018 12:00:00 17,0 7,0 8 4 W - 10
20.04.2018 11:00:00 17,0 7,0 13 7 WNW - 10
20.04.2018 10:00:00 16,3 7,3 11 6 W 1012,5 10
20.04.2018 09:00:00 15,0 8,0 13 7 W - 10
20.04.2018 08:00:00 14,0 9,0 15 8 WSW - 10
20.04.2018 07:00:00 14,0 9,8 13 7 W 1011,3 10
20.04.2018 06:00:00 14,0 10,0 18 10 W - 10
20.04.2018 05:00:00 14,0 10,0 16 9 W - 10
20.04.2018 04:00:00 14,6 11,0 13 7 W 1009,8 9
20.04.2018 03:00:00 15,0 10,0 13 7 W - 10
20.04.2018 02:00:00 18,0 9,0 8 4 W - 10
20.04.2018 01:00:00 17,9 8,5 4 2 W 1010,0 10
20.04.2018 00:00:00 19,0 9,0 13 7 WSW - 10
19.04.2018 23:00:00 21,0 5,0 13 7 WSW - 10
19.04.2018 22:00:00 22,4 3,5 15 8 SW 1010,6 10
19.04.2018 21:00:00 24,0 6,0 16 9 WSW - 10
19.04.2018 20:00:00 27,0 6,0 26 14 W - 10
19.04.2018 19:00:00 32,0 -8,1 5 3 W 1006,9 10
19.04.2018 18:00:00 33,0 -9,0 13 7 WNW - 10
19.04.2018 17:00:00 33,0 -9,0 5 3 - - 10
19.04.2018 16:00:00 32,3 -9,8 13 7 W 1008,3 10
19.04.2018 15:00:00 32,0 -6,0 13 7 W - 10
19.04.2018 14:00:00 31,0 -3,0 5 3 - - 10
19.04.2018 13:00:00 30,4 -0,1 8 4 NNW 1010,4 8
19.04.2018 12:00:00 29,0 4,0 8 4 ENE - 8
19.04.2018 11:00:00 27,0 6,0 4 2 - - 10
19.04.2018 10:00:00 25,2 6,9 4 2 NNW 1012,8 10
19.04.2018 09:00:00 23,0 10,0 0 0 N - 10
19.04.2018 08:00:00 17,0 11,0 2 1 - - 10
19.04.2018 07:00:00 16,8 9,5 5 3 E 1014,2 10
19.04.2018 06:00:00 18,0 9,0 5 3 E - 10
19.04.2018 05:00:00 19,0 8,0 2 1 ESE - 10
19.04.2018 04:00:00 19,4 7,8 2 1 SE 1014,1 10
19.04.2018 03:00:00 - - - - - - -
19.04.2018 02:00:00 - - - - - - -
19.04.2018 01:00:00 23,5 5,4 11 6 SSW 1014,9 10
19.04.2018 00:00:00 23,0 6,0 13 7 SW - 10
18.04.2018 23:00:00 23,0 8,0 9 5 SW - 10
18.04.2018 22:00:00 25,2 5,9 16 9 WNW 1014,9 10
18.04.2018 21:00:00 27,0 7,0 18 10 WNW - 10
18.04.2018 20:00:00 29,0 4,0 18 10 WNW - 10
18.04.2018 19:00:00 31,8 -4,9 13 7 WSW 1011,4 10
18.04.2018 18:00:00 33,0 -7,0 8 4 WSW - 10
18.04.2018 17:00:00 33,0 -8,0 5 3 N - 10
18.04.2018 16:00:00 32,6 -4,3 13 7 WNW 1012,1 10
18.04.2018 15:00:00 32,0 -2,0 5 3 NNW - 10
18.04.2018 14:00:00 31,0 -2,0 5 3 NNW - 10
18.04.2018 13:00:00 30,3 0,8 8 4 - 1014,2 10
18.04.2018 12:00:00 29,0 4,0 9 5 ENE - 10
18.04.2018 11:00:00 27,0 6,0 11 6 E - 10
18.04.2018 10:00:00 23,7 6,5 11 6 E 1016,3 10
18.04.2018 09:00:00 20,0 9,0 8 4 E - 10
18.04.2018 08:00:00 17,0 11,0 8 4 E - 9
18.04.2018 07:00:00 16,7 9,6 0 0 N 1017,0 10
18.04.2018 06:00:00 18,0 9,0 4 2 SSE - 10
18.04.2018 05:00:00 17,0 11,0 9 5 E - 10
18.04.2018 04:00:00 18,2 9,8 0 0 N 1016,7 10
18.04.2018 03:00:00 19,0 9,0 4 2 NNE - 10
18.04.2018 02:00:00 20,0 10,0 8 4 ESE - 10
18.04.2018 01:00:00 21,2 8,5 5 3 S 1017,5 10
18.04.2018 00:00:00 21,0 9,0 5 3 E - 10
17.04.2018 23:00:00 24,0 7,0 13 7 NE - 10
17.04.2018 22:00:00 25,1 5,8 16 9 NNE 1016,2 10
17.04.2018 21:00:00 27,0 4,0 11 6 N - 10
17.04.2018 20:00:00 28,0 3,0 15 8 E - 10
17.04.2018 19:00:00 29,8 0,4 11 6 ENE 1013,4 10
17.04.2018 18:00:00 31,0 -2,0 15 8 NNE - 10
17.04.2018 17:00:00 31,0 -2,0 8 4 NNE - 10
17.04.2018 16:00:00 30,9 -0,7 11 6 - 1013,6 9
17.04.2018 15:00:00 30,0 -2,0 9 5 N - 10
17.04.2018 14:00:00 29,0 -3,0 11 6 ENE - 10
17.04.2018 13:00:00 27,6 -0,5 11 6 NNE 1016,1 10
17.04.2018 12:00:00 26,0 4,0 8 4 NE - 10
17.04.2018 11:00:00 25,0 6,0 5 3 NE - 10
17.04.2018 10:00:00 21,7 7,2 8 4 ENE 1017,9 10
17.04.2018 09:00:00 18,0 8,0 5 3 E - 10
17.04.2018 08:00:00 15,0 10,0 4 2 E - 10
17.04.2018 07:00:00 12,1 8,8 4 2 E 1019,2 10
17.04.2018 06:00:00 13,0 9,0 8 4 ENE - 10
17.04.2018 05:00:00 15,0 10,0 8 4 NE - 10
17.04.2018 04:00:00 15,5 10,1 8 4 E 1018,3 10
17.04.2018 03:00:00 16,0 10,0 8 4 E - 10
17.04.2018 02:00:00 17,0 9,0 11 6 E - 10
17.04.2018 01:00:00 17,4 8,5 8 4 ENE 1018,5 10
17.04.2018 00:00:00 18,0 8,0 9 5 E - 10
16.04.2018 23:00:00 20,0 6,0 9 5 E - 10
16.04.2018 22:00:00 21,7 3,4 8 4 NE 1017,4 10
16.04.2018 21:00:00 23,0 1,0 11 6 NE - 10
16.04.2018 20:00:00 26,0 2,0 13 7 NE - 10
16.04.2018 19:00:00 27,6 -2,3 9 5 NE 1014,7 10
16.04.2018 18:00:00 28,0 -1,0 9 5 NE - 10
16.04.2018 17:00:00 28,0 1,0 5 3 - - 10
16.04.2018 16:00:00 27,4 -2,4 8 4 NNE 1014,7 10

tt = temperature
td = dewpoint
ff = wind speed
dd = wind direction
ppp = reduced air pressure
vv = visibility

Next stations